Location: Unspecified
(0.0000°N, 0.0000°E)
Time: 14:16:29
(UTC+02:00)

Daily predictions for brighter satellites

Satellite Brightness Start Highest point End
(mag) Time Altitude Azimuth Time Altitude Azimuth Time Altitude Azimuth
Cosmos 1980 Rocket 2.8 20:19:32 10° NNW 20:25:00 60° WSW 20:30:30 10° S
PEGASUS R/B 3.4 20:23:24 10° NNE 20:25:38 81° WNW 20:28:25 10° SSW
Cosmos 2341 Rocket 4.1 20:21:44 10° N 20:28:04 80° E 20:34:23 10° S
Ariane H10-3 3.5 20:19:42 10° W 20:29:01 63° S 20:31:50 10° ESE
Delta 2 Rocket 4.2 20:27:06 10° SW 20:32:11 51° SE 20:37:42 10° ENE
GPS 2-04 Rocket1 2.9 20:29:35 10° WNW 20:33:03 52° SW 20:36:25 10° SE
ATLAS 2A CENTAUR R/B 4.2 20:27:09 10° SW 20:33:28 53° SE 21:11:45 10° ENE
Cosmos 1842 3.8 20:32:19 10° SSW 20:36:14 65° W 20:40:08 10° N
Cosmos 1758 Rocket 4.2 20:32:30 10° SSE 20:36:29 34° E 20:40:29 10° NNE
USA 234 3.3 20:39:35 10° NE 20:46:07 90° NNE 20:52:41 10° SW
FENGYUN 3A 4.4 20:42:11 10° SE 20:46:57 33° ENE 20:51:42 10° NNE
Cosmos 1707 4.0 20:45:24 10° SE 20:48:20 21° E 20:51:16 10° NE
Cosmos 2082 4.3 20:44:05 10° S 20:49:06 34° ESE 20:54:05 10° NE
Cosmos 1110 Rocket 4.0 20:45:27 10° N 20:50:32 65° ENE 20:55:40 10° SSE
Cosmos 1825 Rocket 3.5 20:46:56 10° S 20:51:16 88° W 20:55:35 10° N
ARIANE 5 DEB (SYLDA) 2.1 20:49:19 10° W 20:51:22 81° S 20:55:25 12° E
Cosmos 2322 Rocket 2.2 20:48:24 10° N 20:54:02 69° ENE 20:59:40 10° SSE
Cosmos 2297 Rocket 2.6 20:52:46 10° S 20:58:01 39° ESE 21:03:14 10° NE
ISS -2.5 20:57:00 10° WNW 21:00:03 36° SW 21:02:42 13° SSE
Cosmos 1190 Rocket 4.0 20:55:49 10° S 21:01:07 82° ESE 21:06:24 10° NNE
ARIANE 5 DEB (SYLDA) 3.1 20:59:04 10° WSW 21:01:46 66° S 21:07:38 17° E
Cosmos 1812 Rocket 3.5 20:58:35 10° N 21:02:51 61° E 21:07:06 10° SSE
NOSS 3-1 (A) 4.2 20:54:44 10° NNW 21:03:13 78° ENE 21:11:25 11° SSE
Meteor 1-22 Rocket 4.4 20:57:24 10° N 21:03:24 89° ENE 21:09:32 10° S
Cosmos 676 Rocket 4.3 20:59:35 10° S 21:04:36 44° ESE 21:09:35 10° NNE
H-2A R/B 3.8 21:04:10 23° E 21:04:47 24° E 21:07:50 10° NNE
FUSE 4.3 21:00:30 10° WNW 21:05:44 56° SSW 21:09:06 22° SE
Cosmos 1953 Rocket 3.6 21:03:19 10° S 21:07:46 80° W 21:12:08 10° N
SJ-6B 3.0 21:11:07 25° SE 21:13:13 52° E 21:17:02 10° N
Cosmos 864 Rocket 4.4 21:10:04 10° N 21:16:11 83° E 21:22:20 10° S
ARIANE 5 R/B 3.2 20:43:23 10° W 21:19:43 66° SSW 21:22:45 29° ESE
CRYOSAT 2 4.2 21:18:17 15° SSE 21:22:17 71° E 21:27:06 10° N
Meteor 2-16 Rocket 4.4 21:17:13 10° N 21:23:18 69° E 21:28:21 15° SSE
GEOS 3 Rocket 3.8 21:22:14 33° ESE 21:24:10 50° ENE 21:29:03 10° NNW
OAO 3 Copernicus 4.4 21:21:49 10° WNW 21:26:49 67° SW 21:28:44 37° SSE
Lacrosse 4 Rocket 2.9 21:23:11 10° SW 21:26:58 37° WNW 21:30:47 10° N
Cosmos 972 Rocket 4.1 21:22:05 10° N 21:27:28 74° E 21:31:15 24° SSE
ATLAS 5 CENTAUR R/B 1.5 21:23:10 10° SSW 21:27:40 59° ESE 21:32:06 10° NNE
FREGAT/IRIS 3.9 21:29:20 24° SSW 21:30:41 39° W 21:33:33 10° NNW
Meteor 1-24 Rocket 4.2 21:29:46 34° SE 21:31:25 41° E 21:36:59 10° NNE
Helios 1B rocket 3.0 21:28:07 10° NNE 21:31:07 39° ENE 21:31:07 39° ENE
GPS 2-17 Rocket1 3.4 21:28:16 10° W 21:32:41 52° SSW 21:33:35 44° SSE
ARIANE 5 R/B 2.5 21:34:02 10° W 21:35:33 31° WNW 21:35:33 31° WNW
ALOS 3.0 21:32:31 12° S 21:36:39 51° WSW 21:41:09 10° NNW
USA 215 4.4 21:31:51 11° S 21:37:25 36° SW 21:43:17 10° WNW
Resurs 01 Rocket 2.1 21:39:34 42° NE 21:39:34 42° NE 21:43:07 10° N
Cosmos 2227 Rocket 3.1 21:35:24 10° SSW 21:40:50 49° WNW 21:46:16 10° N
ASTEX 1 3.4 21:40:08 26° S 21:42:52 76° W 21:47:43 10° N
Cosmos 1758 3.2 21:39:05 10° N 21:43:07 85° W 21:43:21 78° SSW
Cosmos 389 Rocket 3.3 21:40:26 10° NNW 21:43:54 49° W 21:44:30 44° SW
Delta 142 3.8 21:42:09 10° NW 21:47:32 61° NNE 21:47:47 60° NE
Cosmos 1378 3.7 21:48:01 53° WSW 21:48:24 56° W 21:52:05 10° N
GPS 2-12 Rocket1 3.0 21:44:53 10° WSW 21:49:44 88° NNW 21:49:53 84° NE
Cosmos 1140 Rocket 3.4 21:44:34 10° SSW 21:49:48 90° SSW 21:54:59 10° NNE
Cosmos 1727 Rocket 4.2 21:56:04 49° ENE 21:56:04 49° ENE 22:01:18 10° NNE
Resurs 1-3 4.4 21:56:44 43° N 21:56:44 43° N 21:59:46 10° N
Ariane H10 4.3 20:46:00 10° W 22:00:01 73° S 22:03:43 46° ESE
COSMOS 2428 3.9 21:55:40 10° N 21:59:01 29° NE 21:59:01 29° NE
ARIANE 5 R/B 3.6 21:49:35 10° W 22:01:26 87° N 22:01:45 79° E
SL-16 R/B 4.5 22:01:23 10° WNW 22:05:16 19° WSW 22:09:10 10° SSW
Cosmos 2360 Rocket 2.5 22:02:23 10° NNW 22:07:55 62° WSW 22:08:39 56° SW
Cosmos 1953 4.2 22:12:56 10° NNW 22:15:52 28° WNW 22:15:52 28° WNW
ARIANE 5 R/B 3.3 22:27:45 10° W 22:54:45 - E 22:30:27 60° WNW
Cosmos 2219 Rocket 4.3 22:28:38 10° N 22:29:55 17° NNE 22:29:55 17° NNE
ATLAS 2AS CENTAUR R/B 3.4 22:44:19 10° NNW 22:49:20 48° NNW 22:49:20 48° NNW
BLOCK DM-SL R/B 4.3 23:12:33 10° W 23:24:11 36° W 23:24:11 36° W
